Previsão horária em Cegielnia

Hoje, 3 Agosto, Terça-feira

Tempo Temperatura Precipitação Vento Pressão Humidade
00:00 +14°C° 0 mm 2 m/s 744 mmHg 87%
01:00 +14°C° 0 mm 2 m/s 744 mmHg 87%
02:00 +14°C° 0 mm 2 m/s 744 mmHg 87%
03:00 +14°C° 0 mm 2 m/s 745 mmHg 87%
04:00 +13°C° 0 mm 2 m/s 745 mmHg 88%
05:00 +14°C° 0 mm 3 m/s 745 mmHg 83%
06:00 +16°C° 0 mm 3 m/s 745 mmHg 78%
07:00 +18°C° 0 mm 3 m/s 746 mmHg 73%
08:00 +19°C° 0 mm 3 m/s 746 mmHg 64%
09:00 +21°C° 0 mm 3 m/s 746 mmHg 56%
10:00 +22°C° 0 mm 3 m/s 746 mmHg 47%
11:00 +24°C° 0 mm 3 m/s 746 mmHg 46%
12:00 +24°C° 0 mm 3 m/s 745 mmHg 45%
13:00 +25°C° 0 mm 3 m/s 745 mmHg 45%
14:00 +24°C° 0 mm 2 m/s 745 mmHg 48%
15:00 +24°C° 0 mm 2 m/s 745 mmHg 51%
16:00 +24°C° 0 mm 1 m/s 745 mmHg 54%
17:00 +23°C° 0 mm 1 m/s 745 mmHg 58%
18:00 +21°C° 0 mm 1 m/s 745 mmHg 63%
19:00 +20°C° 0 mm 1 m/s 745 mmHg 68%
20:00 +18°C° 0.7 mm 2 m/s 745 mmHg 75%
21:00 +17°C° 0.7 mm 2 m/s 745 mmHg 82%
22:00 +16°C° 0.7 mm 2 m/s 745 mmHg 89%
23:00 +16°C° 0.3 mm 2 m/s 745 mmHg 89%

Amanhã, 4 Agosto, Quarta-feira

Tempo Temperatura Precipitação Vento Pressão Humidade
00:00 +15°C° 0.3 mm 2 m/s 745 mmHg 90%
01:00 +15°C° 0.3 mm 2 m/s 745 mmHg 90%
02:00 +15°C° 0 mm 2 m/s 745 mmHg 90%
03:00 +15°C° 0 mm 2 m/s 745 mmHg 90%
04:00 +15°C° 0 mm 2 m/s 744 mmHg 90%
05:00 +16°C° 0 mm 2 m/s 745 mmHg 86%
06:00 +17°C° 0 mm 2 m/s 745 mmHg 83%
07:00 +19°C° 0 mm 2 m/s 745 mmHg 79%
08:00 +20°C° 0.1 mm 2 m/s 745 mmHg 75%
09:00 +22°C° 0.1 mm 1 m/s 745 mmHg 70%
10:00 +23°C° 0.1 mm 1 m/s 745 mmHg 66%
11:00 +23°C° 0.6 mm 1 m/s 745 mmHg 67%
12:00 +21°C° 0.6 mm 2 m/s 744 mmHg 69%
13:00 +21°C° 0.6 mm 2 m/s 744 mmHg 71%
14:00 +20°C° 0 mm 2 m/s 744 mmHg 73%
15:00 +20°C° 0 mm 2 m/s 744 mmHg 76%
16:00 +19°C° 0 mm 2 m/s 744 mmHg 78%
17:00 +19°C° 0 mm 2 m/s 744 mmHg 81%
18:00 +18°C° 0 mm 2 m/s 744 mmHg 84%
19:00 +17°C° 0 mm 2 m/s 744 mmHg 86%
20:00 +17°C° 0 mm 2 m/s 744 mmHg 88%
21:00 +16°C° 0 mm 2 m/s 744 mmHg 90%
22:00 +15°C° 0 mm 2 m/s 744 mmHg 92%
23:00 +15°C° 0 mm 2 m/s 744 mmHg 93%

Depois de amanhã, 5 Agosto, Quinta-feira

Tempo Temperatura Precipitação Vento Pressão Humidade
00:00 +15°C° 0 mm 2 m/s 743 mmHg 93%
01:00 +15°C° 0 mm 1 m/s 743 mmHg 94%
02:00 +14°C° 0 mm 2 m/s 743 mmHg 94%
03:00 +14°C° 0 mm 2 m/s 743 mmHg 95%
04:00 +14°C° 0 mm 2 m/s 742 mmHg 95%
05:00 +15°C° 0 mm 2 m/s 742 mmHg 91%
06:00 +16°C° 0 mm 3 m/s 742 mmHg 87%
07:00 +17°C° 0 mm 3 m/s 742 mmHg 83%
08:00 +18°C° 0 mm 3 m/s 742 mmHg 81%
09:00 +18°C° 0 mm 3 m/s 741 mmHg 80%
10:00 +19°C° 0 mm 3 m/s 741 mmHg 78%
11:00 +19°C° 0.1 mm 3 m/s 741 mmHg 77%
12:00 +19°C° 0.1 mm 3 m/s 741 mmHg 77%
13:00 +20°C° 0.1 mm 3 m/s 740 mmHg 76%
14:00 +20°C° 0 mm 3 m/s 740 mmHg 76%
15:00 +20°C° 0 mm 4 m/s 739 mmHg 76%
16:00 +20°C° 0 mm 4 m/s 739 mmHg 76%
17:00 +19°C° 1.4 mm 4 m/s 738 mmHg 83%
18:00 +18°C° 1.4 mm 3 m/s 738 mmHg 91%
19:00 +17°C° 1.4 mm 2 m/s 737 mmHg 98%
20:00 +17°C° 1.5 mm 2 m/s 737 mmHg 98%
21:00 +17°C° 1.5 mm 2 m/s 736 mmHg 98%
22:00 +17°C° 1.5 mm 2 m/s 736 mmHg 99%
23:00 +17°C° 1.9 mm 3 m/s 736 mmHg 98%

6 Agosto, Sexta-feira

Tempo Temperatura Precipitação Vento Pressão Humidade
00:00 +17°C° 1.9 mm 3 m/s 736 mmHg 98%
01:00 +17°C° 1.9 mm 3 m/s 735 mmHg 98%
02:00 +17°C° 1.4 mm 3 m/s 735 mmHg 98%
03:00 +17°C° 1.4 mm 3 m/s 735 mmHg 98%
04:00 +17°C° 1.4 mm 2 m/s 735 mmHg 98%
05:00 +17°C° 1.1 mm 3 m/s 735 mmHg 98%
06:00 +16°C° 1.1 mm 3 m/s 735 mmHg 98%
07:00 +16°C° 1.1 mm 3 m/s 736 mmHg 98%
08:00 +16°C° 0.3 mm 3 m/s 736 mmHg 96%
09:00 +16°C° 0.3 mm 3 m/s 736 mmHg 95%
10:00 +16°C° 0.3 mm 3 m/s 737 mmHg 94%
11:00 +15°C° 0.1 mm 4 m/s 737 mmHg 94%
12:00 +15°C° 0.1 mm 4 m/s 737 mmHg 93%
13:00 +15°C° 0.1 mm 4 m/s 738 mmHg 92%
14:00 +15°C° 0.3 mm 4 m/s 738 mmHg 93%
15:00 +14°C° 0.3 mm 4 m/s 738 mmHg 94%
16:00 +14°C° 0.3 mm 3 m/s 739 mmHg 94%
17:00 +14°C° 0.1 mm 3 m/s 739 mmHg 94%
18:00 +14°C° 0.1 mm 3 m/s 739 mmHg 94%
19:00 +14°C° 0.1 mm 4 m/s 739 mmHg 94%
20:00 +14°C° 0 mm 3 m/s 739 mmHg 94%
21:00 +13°C° 0 mm 3 m/s 740 mmHg 94%
22:00 +13°C° 0 mm 3 m/s 740 mmHg 93%
23:00 +14°C° 0 mm 3 m/s 740 mmHg 93%

7 Agosto, Sábado

Tempo Temperatura Precipitação Vento Pressão Humidade
00:00 +14°C° 0 mm 3 m/s 740 mmHg 93%
01:00 +14°C° 0 mm 3 m/s 740 mmHg 93%
02:00 +14°C° 0 mm 3 m/s 740 mmHg 93%
03:00 +14°C° 0 mm 3 m/s 740 mmHg 93%
04:00 +14°C° 0 mm 3 m/s 740 mmHg 94%
05:00 +16°C° 0 mm 3 m/s 741 mmHg 89%
06:00 +17°C° 0 mm 3 m/s 741 mmHg 85%
07:00 +18°C° 0 mm 4 m/s 741 mmHg 80%
08:00 +19°C° 0 mm 4 m/s 742 mmHg 71%
09:00 +21°C° 0 mm 4 m/s 742 mmHg 63%
10:00 +23°C° 0 mm 4 m/s 742 mmHg 54%
11:00 +25°C° 0 mm 3 m/s 742 mmHg 51%
12:00 +26°C° 0 mm 3 m/s 742 mmHg 48%
13:00 +27°C° 0 mm 3 m/s 742 mmHg 45%
14:00 +26°C° 0 mm 3 m/s 742 mmHg 48%
15:00 +26°C° 0 mm 3 m/s 742 mmHg 51%
16:00 +26°C° 0 mm 3 m/s 742 mmHg 54%
17:00 +24°C° 0 mm 2 m/s 742 mmHg 58%
18:00 +23°C° 0 mm 1 m/s 743 mmHg 62%
19:00 +22°C° 0 mm 1 m/s 743 mmHg 66%
20:00 +21°C° 0 mm 1 m/s 743 mmHg 68%
21:00 +19°C° 0 mm 2 m/s 743 mmHg 70%
22:00 +18°C° 0 mm 2 m/s 744 mmHg 72%
23:00 +18°C° 0 mm 2 m/s 744 mmHg 73%

8 Agosto, Domingo

Tempo Temperatura Precipitação Vento Pressão Humidade
00:00 +18°C° 0 mm 2 m/s 744 mmHg 74%
01:00 +17°C° 0 mm 2 m/s 744 mmHg 74%
02:00 +17°C° 0 mm 2 m/s 744 mmHg 76%
03:00 +17°C° 0 mm 3 m/s 744 mmHg 77%
04:00 +16°C° 0 mm 3 m/s 744 mmHg 79%
05:00 +18°C° 0 mm 3 m/s 744 mmHg 76%
06:00 +19°C° 0 mm 3 m/s 744 mmHg 72%
07:00 +21°C° 0 mm 3 m/s 744 mmHg 69%
08:00 +24°C° 0 mm 3 m/s 745 mmHg 64%
09:00 +26°C° 0 mm 3 m/s 745 mmHg 58%
10:00 +28°C° 0 mm 4 m/s 745 mmHg 52%
11:00 +28°C° 0 mm 3 m/s 745 mmHg 53%
12:00 +28°C° 0 mm 3 m/s 745 mmHg 53%
13:00 +29°C° 0 mm 3 m/s 745 mmHg 54%
14:00 +29°C° 0 mm 3 m/s 745 mmHg 54%
15:00 +29°C° 0 mm 3 m/s 745 mmHg 54%
16:00 +29°C° 0 mm 3 m/s 745 mmHg 54%
17:00 +27°C° 0 mm 3 m/s 745 mmHg 59%
18:00 +26°C° 0 mm 3 m/s 746 mmHg 64%
19:00 +24°C° 0 mm 3 m/s 746 mmHg 69%
20:00 +22°C° 0 mm 3 m/s 746 mmHg 75%
21:00 +21°C° 0 mm 3 m/s 747 mmHg 80%
22:00 +19°C° 0 mm 3 m/s 747 mmHg 86%
23:00 +19°C° 0 mm 3 m/s 747 mmHg 87%
Mostrar mais

Necessitamos do seu Consentimento

A Meteoprog e os seus Fornecedores de Serviços podem armazenar e aceder a dados pessoais como cookies, identificadores do dispositivo ou outras tecnologias semelhantes existentes no seu dispositivo e processar estes dados para personalizar conteúdos e anúncios, assim como funcionalidades nas redes sociais e análise de tráfego.

  • Armazenar e/ou aceder a informações no seu dispositivo

    Os cookies, identificadores do dispositivo ou outras informações podem ser armazenados ou acedidos no seu dispositivo, para os fins acima indicados.

  • Anúncios e conteúdos personalizados, medição de anúncios e conteúdos, dados sobre o público-alvo e desenvolvimento de produtos

    Os anúncios e os conteúdos podem ser personalizados com base num perfil. Podem ser adicionados dados adicionais para uma maior personalização dos anúncios e dos conteúdos. A eficácia dos anúncios e dos conteúdos pode ser medida. Podem ser obtidas informações sobre o público que visualizou os anúncios e os conteúdos. Estes dados podem ser usados para desenvolver ou melhorar sistemas, softwares ou a experiência do utilizador.

Ao clicar em "Eu concordo”, permitirá o uso de cookies, identificadores do dispositivo e web beacons mencionados ou outras tecnologias semelhantes. As configurações do navegador do seu dispositivo podem ser alteradas.

Para certos fins, podem ser invocados interesses legítimos ao invés de consentimento. Pode ler mais informação sobre este assunto na nossa Política de Privacidade e Cookies.